Temp
6 6 6 6 6 6 6 6 7 7 6 6 6 6 6 7 7 7 7 7 7 7 7 6 6 6 5 5 4 4 5 7 8 9 10 10 9 9 10 10 10 9 8 8 10
6 6 6 6 6 6 6 6 6 6 6 6 6 6 6 6 6 6 6 6 6 6 6 6 6 5 5 5 4 5 6 7 8 9 9 9 8 8 9 9 9 8 7 8 9
6 6 6 6 6 6 6 6 6 5 5 5 5 5 5 5 5 5 5 5 6 6 6 5 5 4 3 3 4 5 6 7 7 8 8 8 8 8 9 9 9 8 6 9 10
5 5 5 5 5 5 5 5 5 5 5 5 4 4 4 4 3 5 4 4 4 4 4 4 4 3 2 3 4 4 5 6 7 8 8 8 8 7 8 9 9 8 7 9 10
5 5 5 5 5 5 5 5 5 5 5 4 4 4 3 3 3 4 3 3 3 3 3 2 1 1 2 3 4 4 5 6 6 7 7 7 8 7 7 9 8 7 8 8 9
5 5 5 4 4 4 4 5 4 4 4 4 3 3 3 2 3 2 2 2 2 2 1 1 -0 -0 1 2 3 5 4 5 6 6 6 6 7 7 6 8 7 6 8 8 8
4 4 4 4 4 4 4 4 4 3 3 3 3 2 2 2 2 2 1 1 1 1 1 -0 -2 -2 0 1 2 3 4 4 4 5 6 6 6 6 6 7 6 5 8 8 8
4 4 4 3 3 3 3 3 3 3 3 3 2 2 2 2 1 1 0 0 -0 -0 -0 -1 -2 -2 -1 -0 1 2 3 4 5 5 5 6 6 6 6 6 6 5 6 8 7
4 3 3 3 3 3 3 3 3 3 3 2 2 1 1 1 1 -1 -1 -1 -3 -2 -1 -1 -1 -3 -2 -1 0 2 4 4 5 5 6 6 6 7 5 6 6 6 5 6 7
3 3 3 3 3 3 3 3 2 3 3 1 2 0 0 -2 -3 -2 -2 -2 -2 -4 -4 -2 -3 -2 -2 0 1 3 4 5 5 6 5 6 6 6 6 6 5 6 5 6 7
3 3 3 3 3 2 2 2 2 1 2 0 -0 1 0 -2 -3 -3 -4 -3 -2 -3 -3 -3 -2 -1 -0 0 1 3 4 5 6 6 6 6 7 6 6 6 6 6 6 5 5
2 2 3 2 2 2 2 1 0 -1 1 0 1 -0 -1 -3 -3 -3 -4 -4 -3 -3 -2 -2 -1 -1 -0 0 1 2 3 5 6 7 6 6 6 6 5 6 6 6 6 6 6
2 2 2 1 1 1 0 -0 -1 -2 -2 -1 -4 -4 -5 -5 -5 -4 -4 -3 -3 -2 -1 -1 -0 -0 -0 -0 0 1 2 4 6 6 6 6 6 6 5 6 5 5 5 7 7
1 1 1 1 1 -0 -1 -1 -3 -4 -4 -2 -4 -5 -5 -6 -4 -4 -3 -4 -3 -2 -1 -1 -0 -0 0 0 0 1 2 3 5 6 6 5 7 6 6 6 5 5 4 5 6
1 1 0 0 -0 -1 -1 -2 -4 -4 -4 -3 -4 -6 -7 -6 -5 -4 -4 -4 -4 -3 -2 -1 -0 -0 -0 0 0 1 2 3 4 6 6 5 6 8 7 6 5 5 4 5 5
1 1 0 -0 -1 -1 -2 -3 -5 -6 -3 -5 -7 -7 -7 -6 -5 -4 -4 -4 -4 -3 -4 -2 -1 -0 -1 0 0 0 1 3 4 5 6 6 6 7 7 6 5 6 5 4 6
-0 -0 -1 -1 -2 -2 -4 -5 -5 -5 -6 -5 -8 -8 -8 -7 -6 -5 -5 -5 -4 -5 -3 -2 -1 -0 -1 -0 0 0 1 4 4 5 5 6 7 8 9 7 6 6 7 6 5
-0 -1 -1 -2 -4 -4 -5 -6 -6 -7 -8 -9 -9 -9 -8 -9 -9 -7 -6 -5 -7 -7 -6 -3 -4 -1 -0 -1 -0 1 2 3 3 5 7 7 8 7 9 8 7 7 7 7 6
-1 -1 -3 -3 -4 -5 -7 -8 -9 -10 -10 -10 -10 -9 -9 -9 -10 -8 -7 -8 -9 -10 -9 -6 -3 -1 0 -0 -2 1 2 3 4 5 7 6 7 8 8 9 8 7 6 6 5
-1 -4 -4 -5 -6 -8 -7 -9 -10 -11 -11 -11 -10 -10 -10 -10 -9 -9 -9 -9 -10 -10 -11 -9 -6 -3 -0 0 -0 -0 2 3 5 5 5 8 8 8 8 8 8 7 7 6 4
-3 -7 -6 -6 -10 -10 -11 -10 -11 -11 -11 -11 -11 -11 -11 -10 -10 -10 -10 -10 -11 -11 -10 -9 -7 -3 -2 1 0 -1 2 3 5 6 7 7 8 8 8 8 8 7 7 6 4
-4 -4 -7 -10 -10 -10 -10 -11 -11 -11 -11 -11 -11 -11 -11 -11 -11 -10 -11 -11 -11 -11 -10 -10 -9 -6 -3 1 1 1 2 3 4 5 6 8 8 6 7 7 7 7 7 6 4
-5 -9 -10 -11 -11 -10 -10 -10 -11 -11 -11 -11 -12 -11 -11 -12 -11 -10 -10 -10 -11 -11 -11 -11 -8 -5 -2 1 1 2 3 3 3 4 6 6 4 3 5 6 7 7 7 5 4
-7 -7 -10 -10 -10 -10 -10 -10 -10 -11 -11 -11 -11 -12 -12 -11 -11 -11 -10 -10 -11 -11 -12 -11 -10 -8 -5 -0 0 2 3 4 4 4 5 6 3 1 4 5 5 6 6 5 4
-6 -10 -11 -11 -11 -10 -11 -11 -11 -11 -11 -11 -12 -12 -12 -12 -11 -11 -10 -10 -10 -11 -11 -11 -10 -8 -7 -3 -3 2 3 4 4 3 6 2 0 -1 -0 3 4 6 6 5 5
-7 -8 -10 -11 -10 -10 -11 -11 -11 -11 -11 -12 -12 -12 -12 -12 -12 -12 -11 -11 -11 -11 -11 -11 -10 -8 -4 -3 -2 -3 -2 1 1 1 4 -0 -2 -2 -2 3 4 4 5 5 5
-9 -9 -11 -10 -10 -11 -11 -11 -11 -11 -12 -12 -12 -12 -12 -12 -12 -12 -12 -12 -11 -11 -12 -11 -11 -9 -2 -2 -1 -3 -7 -6 -6 -2 -2 -3 -4 -3 -2 1 4 5 5 4 4
Height
3114 3113 3112 3111 3110 3109 3108 3107 3105 3105 3104 3103 3102 3101 3099 3098 3097 3095 3096 3096 3095 3096 3096 3097 3099 3100 3101 3102 3107 3113 3112 3106 3108 3112 3114 3120 3119 3125 3130 3132 3133 3135 3136 3133 3133
3112 3111 3110 3109 3108 3107 3105 3104 3102 3101 3101 3101 3100 3097 3095 3093 3091 3090 3091 3090 3089 3089 3090 3090 3092 3094 3094 3097 3100 3103 3100 3097 3106 3109 3110 3113 3115 3120 3125 3126 3129 3131 3129 3127 3130
3111 3110 3108 3106 3105 3104 3103 3101 3099 3098 3097 3096 3096 3093 3090 3088 3086 3081 3084 3084 3083 3083 3084 3084 3085 3087 3089 3092 3093 3094 3086 3099 3101 3104 3107 3108 3110 3115 3118 3120 3124 3125 3124 3124 3127
3109 3108 3106 3105 3103 3100 3099 3097 3095 3093 3092 3091 3090 3087 3085 3083 3087 3074 3076 3077 3077 3077 3077 3077 3079 3079 3082 3084 3089 3087 3088 3092 3095 3099 3101 3102 3106 3108 3113 3117 3120 3121 3118 3120 3124
3108 3106 3104 3102 3099 3097 3094 3093 3091 3088 3085 3084 3082 3080 3078 3077 3074 3070 3070 3069 3069 3070 3070 3070 3072 3075 3074 3079 3083 3079 3083 3086 3089 3091 3094 3098 3099 3102 3108 3113 3112 3112 3114 3117 3121
3105 3103 3101 3099 3097 3094 3090 3088 3086 3083 3080 3077 3075 3073 3071 3071 3067 3064 3063 3062 3063 3062 3063 3063 3065 3070 3070 3071 3074 3076 3078 3078 3081 3083 3088 3090 3094 3100 3102 3108 3106 3109 3110 3112 3118
3103 3101 3098 3096 3093 3090 3087 3084 3082 3079 3075 3072 3069 3067 3065 3065 3060 3057 3056 3056 3056 3056 3056 3056 3059 3062 3065 3065 3067 3069 3071 3070 3071 3076 3079 3086 3089 3085 3095 3102 3101 3104 3107 3110 3113
3099 3097 3095 3093 3090 3086 3083 3080 3077 3074 3070 3066 3063 3061 3058 3053 3052 3051 3051 3050 3049 3049 3049 3049 3050 3053 3056 3060 3061 3062 3064 3061 3062 3069 3072 3078 3071 3079 3086 3092 3098 3100 3103 3105 3107
3096 3093 3091 3089 3085 3081 3078 3075 3072 3068 3064 3060 3057 3057 3052 3047 3047 3046 3045 3045 3044 3042 3042 3042 3044 3046 3051 3051 3055 3053 3048 3050 3056 3059 3065 3064 3066 3074 3078 3084 3090 3095 3099 3101 3104
3092 3089 3087 3084 3081 3077 3073 3070 3066 3061 3058 3055 3052 3053 3048 3047 3044 3038 3039 3038 3037 3037 3038 3037 3038 3039 3041 3043 3038 3040 3040 3043 3045 3050 3055 3056 3061 3068 3072 3078 3082 3089 3093 3099 3098
3088 3085 3082 3079 3075 3071 3069 3065 3061 3053 3047 3050 3049 3038 3040 3040 3032 3034 3033 3032 3031 3031 3032 3034 3035 3031 3034 3036 3035 3038 3036 3036 3039 3045 3048 3050 3056 3061 3065 3071 3076 3079 3087 3092 3096
3084 3082 3078 3074 3069 3065 3061 3057 3053 3051 3039 3042 3035 3030 3027 3026 3027 3030 3029 3028 3027 3024 3027 3030 3022 3027 3029 3030 3030 3032 3031 3028 3032 3035 3040 3045 3048 3053 3059 3063 3068 3075 3082 3088 3094
3081 3077 3073 3069 3064 3060 3056 3052 3047 3041 3035 3029 3025 3024 3026 3024 3023 3024 3025 3022 3022 3021 3019 3017 3017 3020 3021 3022 3023 3023 3025 3025 3025 3030 3035 3041 3043 3047 3051 3057 3062 3067 3075 3083 3088
3077 3073 3069 3064 3061 3056 3049 3045 3042 3038 3034 3031 3026 3024 3025 3021 3016 3017 3016 3018 3015 3013 3012 3009 3011 3012 3013 3012 3017 3016 3020 3022 3021 3023 3026 3035 3030 3034 3042 3048 3053 3058 3064 3074 3080
3073 3070 3065 3060 3055 3051 3047 3041 3038 3035 3037 3028 3026 3020 3018 3020 3015 3014 3011 3009 3007 3005 3006 3000 3002 3003 3003 3004 3009 3008 3015 3018 3018 3018 3023 3025 3028 3020 3034 3040 3043 3050 3056 3063 3075
3068 3065 3061 3056 3050 3045 3040 3036 3034 3037 3028 3025 3021 3018 3014 3013 3010 3006 3005 3004 3001 2997 2993 2992 2994 2995 2996 2997 3000 3008 3011 3014 3014 3014 3012 3015 3019 3016 3016 3024 3035 3043 3049 3055 3064
3064 3059 3055 3049 3046 3040 3035 3032 3038 3032 3027 3024 3017 3015 3011 3005 3000 3000 2998 2997 2994 2988 2984 2986 2984 2986 2990 2990 2994 3000 3002 3003 3007 3005 3003 3008 3011 3007 3013 3020 3029 3035 3044 3051 3045
3061 3056 3050 3043 3040 3036 3032 3036 3035 3031 3029 3023 3018 3012 3006 3000 2997 2995 2993 2992 2989 2987 2982 2977 2974 2976 2980 2982 2987 2989 2993 2992 2996 2998 2999 3000 2998 3004 3009 3012 3023 3033 3041 3049 3047
3058 3053 3048 3044 3038 3034 3032 3034 3034 3032 3029 3022 3016 3010 3006 3002 3000 2996 2992 2988 2981 2979 2984 2977 2968 2967 2972 2976 2981 2983 2986 2993 2998 2996 2997 2999 3000 3003 3007 3010 3017 3026 3035 3040 3041
3056 3050 3044 3039 3034 3034 3035 3035 3034 3031 3027 3023 3017 3014 3007 3003 3000 2995 2992 2988 2985 2985 2984 2979 2972 2963 2968 2974 2979 2979 2987 2987 2988 2991 2991 2988 2990 2997 3002 3008 3013 3021 3027 3033 3038
3055 3052 3045 3036 3038 3036 3034 3036 3033 3030 3026 3023 3018 3013 3009 3005 3001 2997 2994 2987 2985 2982 2981 2979 2977 2969 2966 2968 2972 2976 2980 2984 2987 2986 2981 2982 2988 2996 2999 3005 3011 3017 3024 3028 3035
3054 3051 3045 3040 3042 3040 3038 3036 3032 3029 3025 3021 3017 3013 3009 3005 3000 2996 2992 2987 2983 2982 2979 2978 2974 2968 2965 2966 2970 2974 2976 2981 2984 2986 2983 2982 2988 2992 2995 3003 3009 3015 3021 3025 3032
3052 3049 3044 3045 3042 3042 3040 3037 3032 3028 3023 3019 3015 3012 3008 3003 2999 2994 2992 2990 2985 2982 2981 2977 2973 2967 2965 2966 2970 2971 2973 2980 2986 2988 2983 2986 2994 2992 2996 2999 3007 3013 3019 3023 3030
3055 3051 3047 3048 3048 3045 3040 3036 3032 3027 3022 3018 3013 3009 3005 3001 2997 2993 2990 2989 2986 2982 2980 2976 2973 2971 2968 2962 2971 2972 2974 2978 2982 2987 2985 2985 2992 2994 2993 2998 3001 3007 3017 3024 3028
3053 3051 3048 3050 3047 3045 3041 3037 3032 3025 3021 3015 3009 3005 3001 2996 2993 2991 2990 2988 2986 2982 2980 2976 2972 2971 2966 2962 2968 2972 2976 2979 2983 2988 2986 2988 2992 2997 2995 2998 3002 3009 3016 3023 3029
3054 3053 3055 3052 3050 3045 3041 3037 3031 3025 3018 3010 3005 2998 2993 2989 2989 2989 2989 2988 2985 2983 2980 2976 2973 2970 2966 2965 2965 2968 2970 2970 2977 2982 2986 2990 2992 2997 2995 2995 3001 3008 3014 3023 3028
3055 3054 3055 3055 3051 3046 3042 3037 3032 3025 3018 3012 3002 2995 2989 2986 2984 2984 2986 2986 2984 2981 2979 2978 2977 2974 2966 2967 2966 2974 2985 2988 2985 2984 2988 2991 2997 2999 2995 2997 3001 3005 3007 3011 3016
Wind_Speed
10 12 13 14 15 16 17 18 19 20 20 18 17 18 20 21 22 24 23 25 27 25 26 25 24 25 26 30 29 25 35 44 45 42 39 31 27 27 21 22 19 19 12 16 20
12 13 13 14 15 17 18 19 19 20 21 20 18 19 21 22 24 25 26 27 29 28 26 26 25 25 30 30 30 34 40 45 37 34 34 31 34 28 23 25 23 21 24 22 17
12 13 14 15 16 17 18 19 20 21 22 20 19 20 22 22 22 27 20 20 22 24 25 24 26 27 27 27 29 36 48 35 35 34 29 29 34 30 27 26 26 25 21 26 19
13 14 15 16 17 18 20 21 21 22 22 22 21 21 20 20 10 26 27 24 25 27 29 29 25 29 30 32 31 37 39 37 35 31 35 34 31 28 29 25 25 24 31 23 21
15 16 17 18 19 21 21 23 24 24 25 25 24 23 22 23 23 29 26 26 26 24 27 28 23 20 30 29 30 38 36 34 31 35 31 32 35 31 35 25 24 18 24 19 25
17 18 20 21 22 22 23 25 25 26 26 26 25 25 25 25 26 27 27 25 24 24 26 26 26 19 25 28 32 31 34 34 32 33 34 33 38 31 39 31 18 25 15 19 26
19 20 21 23 23 23 24 25 26 27 27 26 26 26 28 23 25 30 24 18 20 23 24 26 23 25 17 24 29 33 32 30 39 34 37 29 36 42 37 33 26 27 20 19 31
20 21 21 22 24 23 24 25 27 27 26 26 28 28 29 32 26 22 19 23 25 22 22 23 20 25 28 24 23 23 33 39 34 38 35 37 44 41 42 33 31 29 24 22 25
20 20 21 22 23 24 25 26 28 27 26 27 28 27 23 21 22 21 23 23 17 21 21 23 20 20 22 29 29 33 37 42 36 39 36 43 44 40 43 44 34 32 28 25 25
19 20 22 23 23 24 25 26 26 28 26 24 26 17 18 12 15 24 23 21 19 17 18 19 17 19 26 32 40 37 40 38 40 37 42 41 42 34 39 40 40 35 32 28 29
19 21 23 24 25 24 24 26 29 32 31 23 27 35 28 23 35 21 16 16 18 19 23 20 20 29 27 31 39 41 38 36 37 35 37 46 41 35 33 39 39 36 32 29 31
21 23 24 25 26 26 27 28 28 29 39 30 30 30 26 26 25 12 16 17 15 19 18 22 34 25 23 28 34 39 42 40 30 33 41 37 45 36 37 41 40 37 40 33 32
21 22 24 25 25 27 27 27 30 32 36 28 14 10 5 11 16 18 18 16 18 20 22 30 27 22 22 27 33 38 40 39 33 33 33 33 36 39 40 36 39 39 43 38 37
21 22 23 25 27 27 31 31 29 26 17 7 7 3 4 16 23 13 16 22 23 25 23 30 26 28 29 27 32 39 38 37 29 30 33 33 26 44 38 40 42 39 46 43 39
22 22 23 24 26 28 29 28 25 23 5 9 4 9 15 15 22 13 9 18 23 26 26 31 29 29 29 33 29 38 34 38 32 34 29 34 37 40 41 41 43 40 44 46 45
25 25 26 25 28 29 27 23 17 2 6 4 8 19 27 22 21 23 21 23 23 29 30 31 27 25 27 27 30 33 33 35 33 32 25 34 37 36 49 51 43 43 43 42 45
26 28 27 30 27 26 21 15 7 6 11 9 30 30 31 29 24 20 18 17 20 13 28 32 34 32 25 26 29 36 39 21 19 20 14 36 37 34 35 39 43 46 44 42 43
27 27 27 30 27 21 15 7 5 6 18 26 28 28 23 17 13 12 16 19 4 6 20 28 13 34 27 30 34 41 44 24 17 17 20 27 29 34 22 33 42 42 45 45 45
25 25 26 22 20 18 12 4 4 13 19 24 24 22 21 21 16 17 13 14 8 16 8 10 15 23 28 28 25 36 41 38 29 32 21 28 33 20 28 23 34 39 43 47 52
24 21 25 27 22 15 5 6 5 12 17 17 19 19 22 18 19 15 13 6 9 10 15 7 14 10 27 28 24 31 39 36 30 18 16 25 32 29 29 24 29 39 43 48 45
19 11 23 27 18 21 21 10 10 13 16 17 18 18 19 19 18 17 12 7 14 18 10 9 9 6 21 32 32 29 44 41 31 21 13 13 20 25 26 33 26 36 40 44 38
14 17 23 24 21 19 21 19 14 18 17 14 16 13 17 19 18 17 13 15 17 19 16 11 8 10 14 27 29 29 34 41 15 23 25 15 9 11 14 27 25 31 38 42 37
16 20 23 18 23 20 20 21 17 18 17 15 15 13 17 22 21 15 13 15 14 16 14 18 5 6 14 28 28 32 29 38 24 25 16 11 6 6 12 13 23 26 33 37 36
14 17 18 18 17 20 21 23 20 19 18 17 17 17 21 22 15 15 15 8 15 16 19 17 10 11 9 22 21 30 27 31 21 13 18 16 15 9 15 17 18 23 29 29 31
21 19 21 19 18 20 21 22 23 26 23 16 22 22 24 22 18 11 8 11 12 12 15 17 7 12 13 14 8 25 26 29 27 22 18 16 12 10 5 11 20 23 21 27 28
28 19 13 14 19 17 24 24 24 28 24 27 25 32 22 18 10 12 9 9 7 9 18 15 6 8 9 12 17 20 16 13 10 7 7 19 23 12 5 12 17 20 20 25 28
26 22 16 17 17 20 25 24 24 28 24 27 28 24 19 13 8 9 9 8 7 13 16 8 9 10 7 17 18 17 28 20 15 7 8 14 10 12 6 11 23 27 28 30 33
Wind_Direction
309 306 304 302 301 301 302 303 303 302 301 300 300 299 296 295 294 292 292 291 289 287 285 280 270 257 245 237 231 230 233 236 236 239 239 239 234 228 230 227 226 220 217 233 209
300 299 300 302 303 302 302 302 302 299 296 295 297 296 292 292 291 286 287 286 285 284 280 272 264 253 249 243 227 222 232 235 236 242 244 241 236 224 220 220 220 213 215 223 202
301 302 303 305 303 302 300 298 295 293 294 297 298 295 293 295 297 291 295 292 288 282 276 269 260 239 241 234 230 227 233 237 240 238 237 238 230 225 220 225 221 217 212 223 215
307 307 307 302 299 298 298 296 294 295 297 299 297 297 299 301 300 292 297 293 282 279 277 274 263 244 235 236 232 235 237 239 236 237 234 237 227 225 220 219 217 224 224 229 215
311 308 306 305 305 302 300 299 299 299 301 301 305 304 305 304 305 303 298 296 288 275 269 264 255 247 241 238 236 238 239 238 241 232 232 227 223 222 210 208 208 212 219 213 211
308 308 307 305 303 302 301 299 298 300 302 305 307 307 306 306 300 299 300 295 285 275 262 258 253 245 248 241 234 241 243 239 236 230 226 222 219 218 218 215 221 212 212 204 205
310 309 308 305 301 298 298 298 299 301 302 304 305 305 303 300 297 299 294 291 289 284 271 259 248 240 244 247 240 238 239 241 230 230 224 224 224 221 217 218 211 214 227 205 202
309 308 305 303 300 300 301 300 300 300 304 307 306 305 302 299 295 289 284 292 291 278 267 260 248 245 240 238 238 241 233 237 234 221 222 215 224 217 208 213 218 221 216 219 215
311 308 305 303 301 303 305 303 303 305 309 309 305 304 303 303 290 277 278 286 268 275 265 261 252 242 239 234 239 231 230 230 233 223 219 217 225 222 213 216 219 212 217 220 214
310 310 308 307 306 307 307 306 308 308 308 306 301 302 295 273 251 270 281 273 263 255 258 259 248 240 232 224 226 227 226 232 226 220 216 219 222 218 213 213 219 216 212 214 221
316 314 314 312 310 310 309 311 321 324 315 306 294 294 278 267 266 278 259 263 265 252 238 240 234 232 238 237 238 237 232 228 234 224 219 221 220 214 209 214 212 213 215 208 219
321 319 317 317 317 318 319 320 320 312 310 312 301 288 274 257 269 267 248 254 244 240 245 230 236 243 248 243 239 237 241 242 230 227 219 220 221 218 213 213 213 216 214 213 209
322 320 321 319 321 321 318 320 321 320 322 324 297 299 275 270 275 263 255 246 240 249 237 235 242 244 246 245 237 233 230 232 231 218 218 218 225 215 215 212 213 213 206 210 208
326 325 324 322 323 324 320 323 323 323 315 273 329 288 299 292 292 263 254 237 245 249 248 245 245 244 245 243 234 232 222 224 231 210 215 207 218 214 211 209 208 212 210 209 207
329 328 327 327 322 321 320 319 323 328 279 304 259 253 310 309 290 260 266 238 259 254 248 247 241 239 242 243 231 232 219 217 223 218 210 209 231 209 208 208 212 214 216 202 206
331 332 331 328 328 326 324 328 331 303 257 293 322 303 311 307 288 279 271 260 267 262 256 253 243 240 241 242 229 218 217 211 221 215 213 216 212 230 198 209 211 203 208 208 206
334 334 333 334 335 335 336 345 311 247 326 306 322 318 312 307 296 281 272 273 267 287 248 242 237 237 239 232 220 205 210 198 208 217 225 212 204 221 214 208 208 201 203 205 203
336 338 340 342 341 345 357 0 266 309 315 311 320 321 316 333 335 309 287 270 216 279 272 269 261 227 221 222 213 203 202 203 191 206 212 210 220 216 216 205 206 204 203 202 217
338 344 345 344 357 15 41 6 306 326 322 325 328 333 325 320 322 320 299 298 354 27 351 311 267 224 211 208 213 197 204 199 199 209 205 213 218 222 209 203 198 200 201 205 217
351 353 354 4 27 39 44 61 344 335 331 335 333 334 329 335 334 325 319 319 2 348 335 281 297 243 201 202 214 218 198 210 204 207 208 201 203 208 207 196 196 200 199 205 214
7 351 6 23 41 40 50 24 350 347 340 331 330 326 336 337 325 299 296 314 6 341 338 325 268 265 221 206 204 217 196 209 207 211 224 194 200 197 203 204 205 203 200 203 207
14 20 21 50 49 36 29 11 358 348 343 332 324 322 325 328 321 304 304 330 345 344 338 326 293 279 220 197 203 197 196 203 215 219 216 202 168 146 174 199 207 201 200 206 204
24 36 34 37 40 31 19 14 8 358 348 338 331 324 317 326 325 313 310 323 333 336 341 331 295 270 228 197 197 201 193 194 197 203 214 220 120 93 135 171 192 196 195 199 200
39 39 45 43 34 27 13 12 9 358 349 335 325 315 320 318 313 305 304 301 328 320 318 326 281 285 309 199 198 194 192 193 197 193 210 208 127 66 154 172 173 172 194 195 194
45 59 61 31 27 15 18 7 1 354 348 338 325 329 324 313 306 292 299 301 317 297 327 343 284 307 289 215 233 187 193 193 191 203 205 140 90 47 106 180 171 171 181 187 191
53 60 52 30 18 15 15 7 360 351 347 343 336 329 331 313 289 283 291 293 304 301 315 339 291 314 247 215 106 82 62 63 163 201 161 103 73 45 73 170 168 160 167 184 190
53 52 55 34 19 21 15 4 357 351 358 347 345 352 3 347 300 267 253 262 308 304 319 327 340 339 218 148 108 69 45 44 76 84 63 40 53 38 31 144 164 176 175 172 180